Tracking 19706 objects as of 16-Jun-2019
HD Live streaming from Space Station
objects crossing your sky now

COSMOS 2190

Track COSMOS 2190 now!
10-day predictions
COSMOS 2190 is classified as:


NORAD ID: 21979
Int'l Code: 1992-030D
Perigee: 1,437.6 km
Apogee: 1,487.0 km
Inclination: 74.0 °
Period: 115.0 minutes
Semi major axis: 7833 km
RCS: 0.7129 m2 (medium)
Launch date: June 3, 1992
Source: Commonwealth of Independent States (former USSR) (CIS)
Launch site: PLESETSK MISSILE AND SPACE COMPLEX (PKMTR)
aabbcc
Your satellite tracking list
Your tracking list is empty




NASA's NSSDC Master Catalog

Two Line Element Set (TLE):
1 21979U 92030D   19166.82797343 -.00000004 +00000-0 +76730-4 0  9990
2 21979 074.0047 036.4688 0031507 359.9147 074.3022 12.52240612235723
Source of the keplerian elements: AFSPC